SWA1301 KSNA-KSJC

Flight info

Callsign SWA1301
Flight time 0h 53m
Altitude 36000
Route HHERO3 IKAYE TESEA SCTRR TROXX SILCN6
Aircraft B737/M-SDE2E3GIJ4RWZ/LB1D1

Departure

Time 2026-05-07 17:19
Airport John Wayne Orange County International Airport (KSNA)

Arrival

Time 2026-05-07 18:12
Airport Norman Y. Mineta San Jose International Airport (KSJC)
Time Latitude Longitude Altitude Speed Heading
2026-05-07 17:00 33.67535 -117.86484 54 ft 0 kts 118°
2026-05-07 17:09 33.67538 -117.86491 54 ft 4 kts 117°
2026-05-07 17:09 33.67550 -117.86520 48 ft 4 kts 111°
2026-05-07 17:10 33.67556 -117.86549 48 ft 4 kts 71°
2026-05-07 17:10 33.67550 -117.86561 48 ft 1 kts 28°
2026-05-07 17:15 33.67554 -117.86558 49 ft 3 kts 28°
2026-05-07 17:15 33.67600 -117.86529 50 ft 9 kts 28°
2026-05-07 17:15 33.67659 -117.86492 51 ft 9 kts 26°
2026-05-07 17:16 33.67717 -117.86457 52 ft 9 kts 27°
2026-05-07 17:16 33.67773 -117.86420 50 ft 9 kts 28°
2026-05-07 17:16 33.67827 -117.86385 54 ft 9 kts 28°
2026-05-07 17:16 33.67889 -117.86345 51 ft 12 kts 28°
2026-05-07 17:17 33.67965 -117.86297 51 ft 12 kts 27°
2026-05-07 17:17 33.68043 -117.86275 52 ft 12 kts 330°
2026-05-07 17:17 33.68086 -117.86358 52 ft 12 kts 298°
2026-05-07 17:17 33.68126 -117.86441 54 ft 11 kts 298°
2026-05-07 17:18 33.68135 -117.86525 52 ft 11 kts 223°
2026-05-07 17:18 33.67981 -117.86625 54 ft 59 kts 207°
2026-05-07 17:18 33.67373 -117.87009 55 ft 133 kts 208°
2026-05-07 17:18 33.66434 -117.87574 392 ft 161 kts 205°
2026-05-07 17:19 33.65438 -117.88181 1242 ft 159 kts 208°
2026-05-07 17:19 33.64471 -117.88786 1873 ft 158 kts 207°
2026-05-07 17:19 33.63395 -117.89112 2148 ft 161 kts 182°
2026-05-07 17:19 33.62284 -117.89218 2475 ft 164 kts 187°
2026-05-07 17:20 33.61147 -117.89375 2820 ft 166 kts 187°
2026-05-07 17:20 33.59976 -117.89539 3179 ft 177 kts 187°
2026-05-07 17:20 33.58633 -117.89728 3537 ft 212 kts 188°
2026-05-07 17:20 33.57144 -117.90324 3832 ft 240 kts 207°
2026-05-07 17:21 33.55693 -117.91443 4352 ft 262 kts 221°
2026-05-07 17:21 33.54328 -117.92980 5129 ft 273 kts 226°
2026-05-07 17:21 33.52962 -117.94594 6097 ft 279 kts 225°
2026-05-07 17:21 33.51548 -117.96235 7047 ft 285 kts 224°
2026-05-07 17:22 33.50096 -117.97890 7666 ft 290 kts 224°
2026-05-07 17:22 33.48623 -117.99558 7978 ft 293 kts 224°
2026-05-07 17:22 33.47341 -118.01466 8142 ft 298 kts 241°
2026-05-07 17:22 33.46316 -118.03638 9106 ft 299 kts 242°
2026-05-07 17:23 33.45281 -118.05818 10104 ft 302 kts 241°
2026-05-07 17:23 33.44203 -118.08052 10644 ft 321 kts 241°
2026-05-07 17:23 33.43434 -118.09627 10771 ft 341 kts 240°
2026-05-07 17:23 33.42197 -118.12172 11046 ft 364 kts 243°
2026-05-07 17:24 33.41422 -118.15079 11666 ft 371 kts 265°
2026-05-07 17:24 33.41546 -118.18140 12526 ft 368 kts 284°
2026-05-07 17:24 33.42137 -118.21128 13393 ft 371 kts 287°
2026-05-07 17:24 33.42775 -118.24142 14156 ft 377 kts 287°
2026-05-07 17:25 33.43401 -118.27213 14897 ft 382 kts 287°
2026-05-07 17:25 33.44061 -118.30298 15686 ft 384 kts 292°
2026-05-07 17:25 33.45165 -118.33203 16469 ft 384 kts 301°
2026-05-07 17:25 33.46455 -118.36028 17253 ft 388 kts 302°
2026-05-07 17:26 33.47772 -118.38872 18021 ft 393 kts 302°
2026-05-07 17:26 33.49082 -118.41772 18705 ft 398 kts 302°
2026-05-07 17:26 33.50381 -118.44725 19373 ft 402 kts 301°
2026-05-07 17:26 33.51681 -118.47713 20046 ft 405 kts 301°
2026-05-07 17:27 33.53128 -118.50611 20708 ft 405 kts 309°
2026-05-07 17:27 33.54841 -118.53299 21365 ft 407 kts 312°
2026-05-07 17:27 33.56625 -118.55957 21980 ft 411 kts 313°
2026-05-07 17:27 33.58425 -118.58648 22574 ft 415 kts 312°
2026-05-07 17:28 33.60221 -118.61384 23186 ft 419 kts 311°
2026-05-07 17:28 33.62014 -118.64163 23751 ft 423 kts 311°
2026-05-07 17:28 33.63815 -118.66978 24243 ft 427 kts 311°
2026-05-07 17:28 33.65613 -118.69762 24733 ft 428 kts 314°
2026-05-07 17:29 33.67840 -118.72149 25191 ft 425 kts 331°
2026-05-07 17:29 33.70354 -118.73806 25715 ft 423 kts 335°
2026-05-07 17:29 33.72993 -118.75407 26197 ft 426 kts 336°
2026-05-07 17:29 33.75657 -118.76998 26624 ft 430 kts 336°
2026-05-07 17:30 33.78343 -118.78613 27057 ft 433 kts 336°
2026-05-07 17:30 33.81040 -118.80255 27507 ft 436 kts 336°
2026-05-07 17:30 33.83750 -118.81923 27935 ft 439 kts 335°
2026-05-07 17:30 33.86473 -118.83610 28350 ft 441 kts 335°
2026-05-07 17:31 33.89174 -118.85291 28754 ft 444 kts 335°
2026-05-07 17:31 33.91926 -118.87007 29154 ft 447 kts 335°
2026-05-07 17:31 33.94695 -118.88736 29536 ft 450 kts 335°
2026-05-07 17:31 33.97481 -118.90475 29951 ft 451 kts 335°
2026-05-07 17:32 34.00262 -118.92213 30467 ft 449 kts 335°
2026-05-07 17:32 34.03027 -118.93942 31026 ft 446 kts 335°
2026-05-07 17:32 34.05768 -118.95657 31554 ft 443 kts 335°
2026-05-07 17:32 34.08500 -118.97366 32002 ft 442 kts 336°
2026-05-07 17:33 34.11234 -118.99077 32420 ft 442 kts 336°
2026-05-07 17:33 34.13941 -119.00824 32876 ft 442 kts 331°
2026-05-07 17:33 34.16345 -119.03161 33278 ft 447 kts 320°
2026-05-07 17:33 34.18550 -119.05799 33764 ft 445 kts 319°
2026-05-07 17:34 34.20722 -119.08453 34165 ft 444 kts 319°
2026-05-07 17:34 34.22895 -119.11116 34500 ft 444 kts 319°
2026-05-07 17:34 34.25064 -119.13759 34851 ft 442 kts 319°
2026-05-07 17:34 34.27234 -119.16384 35234 ft 440 kts 319°
2026-05-07 17:35 34.29401 -119.18992 35602 ft 438 kts 319°
2026-05-07 17:35 34.31564 -119.21587 35919 ft 437 kts 319°
2026-05-07 17:35 34.33729 -119.24177 36082 ft 439 kts 319°
2026-05-07 17:35 34.35904 -119.26779 36076 ft 439 kts 319°
2026-05-07 17:36 34.40232 -119.31963 36085 ft 436 kts 319°
2026-05-07 17:36 34.44532 -119.37124 36088 ft 435 kts 319°
2026-05-07 17:37 34.48836 -119.42299 36079 ft 436 kts 319°
2026-05-07 17:37 34.53131 -119.47474 36091 ft 434 kts 318°
2026-05-07 17:38 34.57411 -119.52635 36084 ft 434 kts 318°
2026-05-07 17:38 34.61690 -119.57803 36091 ft 434 kts 318°
2026-05-07 17:39 34.65968 -119.62978 36075 ft 434 kts 318°
2026-05-07 17:39 34.70246 -119.68162 36086 ft 434 kts 318°
2026-05-07 17:40 34.74517 -119.73346 36091 ft 434 kts 318°
2026-05-07 17:40 34.78797 -119.78547 36089 ft 435 kts 318°
2026-05-07 17:41 34.83076 -119.83757 36094 ft 435 kts 318°
2026-05-07 17:41 34.87349 -119.88969 36100 ft 434 kts 318°
2026-05-07 17:42 34.91612 -119.94175 36081 ft 434 kts 317°
2026-05-07 17:42 34.95843 -119.99349 36092 ft 434 kts 317°
2026-05-07 17:43 35.00128 -120.04598 36091 ft 434 kts 317°
2026-05-07 17:43 35.04386 -120.09823 36098 ft 434 kts 317°
2026-05-07 17:44 35.08652 -120.15067 36106 ft 435 kts 317°
2026-05-07 17:44 35.12915 -120.20316 36095 ft 435 kts 317°
2026-05-07 17:45 35.17173 -120.25520 36108 ft 435 kts 320°
2026-05-07 17:45 35.21927 -120.30050 36095 ft 434 kts 326°
2026-05-07 17:46 35.26797 -120.34419 36106 ft 433 kts 326°
2026-05-07 17:46 35.31643 -120.38816 36098 ft 434 kts 325°
2026-05-07 17:47 35.36479 -120.43251 36111 ft 434 kts 325°
2026-05-07 17:47 35.41310 -120.47697 36109 ft 434 kts 325°
2026-05-07 17:48 35.46138 -120.52145 36147 ft 434 kts 325°
2026-05-07 17:48 35.50962 -120.56593 36156 ft 434 kts 324°
2026-05-07 17:49 35.55873 -120.60869 36165 ft 432 kts 329°
2026-05-07 17:49 35.60970 -120.64792 36163 ft 432 kts 329°
2026-05-07 17:50 35.66066 -120.68701 36167 ft 431 kts 329°
2026-05-07 17:50 35.71135 -120.72658 36164 ft 432 kts 329°
2026-05-07 17:51 35.76195 -120.76641 36160 ft 432 kts 329°
2026-05-07 17:51 35.81255 -120.80636 36160 ft 432 kts 328°
2026-05-07 17:52 35.86324 -120.84643 35737 ft 439 kts 328°
2026-05-07 17:52 35.88897 -120.86678 35084 ft 439 kts 328°
2026-05-07 17:52 35.91471 -120.88716 34314 ft 441 kts 328°
2026-05-07 17:53 35.94056 -120.90763 33442 ft 442 kts 328°
2026-05-07 17:53 35.96622 -120.92796 32558 ft 444 kts 328°
2026-05-07 17:53 35.99228 -120.94864 31750 ft 445 kts 328°
2026-05-07 17:53 36.01801 -120.96945 31422 ft 432 kts 326°
2026-05-07 17:54 36.04191 -120.99112 30894 ft 429 kts 323°
2026-05-07 17:54 36.06540 -121.01374 30272 ft 428 kts 322°
2026-05-07 17:54 36.08868 -121.03654 29630 ft 425 kts 322°
2026-05-07 17:54 36.11182 -121.05914 28984 ft 421 kts 322°
2026-05-07 17:55 36.13472 -121.08131 28396 ft 417 kts 323°
2026-05-07 17:55 36.15751 -121.10320 27786 ft 413 kts 323°
2026-05-07 17:55 36.18016 -121.12485 27199 ft 409 kts 323°
2026-05-07 17:55 36.20263 -121.14630 26619 ft 406 kts 323°
2026-05-07 17:56 36.22493 -121.16758 26051 ft 403 kts 323°
2026-05-07 17:56 36.24712 -121.18877 25472 ft 400 kts 323°
2026-05-07 17:56 36.26911 -121.20979 24893 ft 398 kts 323°
2026-05-07 17:56 36.29107 -121.23080 24297 ft 397 kts 323°
2026-05-07 17:57 36.31293 -121.25173 23708 ft 395 kts 323°
2026-05-07 17:57 36.32730 -121.26550 23250 ft 394 kts 323°
2026-05-07 17:57 36.35591 -121.29293 22423 ft 390 kts 323°
2026-05-07 17:57 36.37726 -121.31345 21831 ft 387 kts 323°
2026-05-07 17:58 36.39842 -121.33384 21252 ft 383 kts 323°
2026-05-07 17:58 36.41937 -121.35405 20679 ft 380 kts 323°
2026-05-07 17:58 36.44018 -121.37414 20127 ft 377 kts 323°
2026-05-07 17:58 36.46078 -121.39402 19558 ft 374 kts 323°
2026-05-07 17:59 36.48126 -121.41379 18992 ft 371 kts 323°
2026-05-07 17:59 36.50231 -121.43223 18386 ft 369 kts 333°
2026-05-07 17:59 36.52599 -121.44386 17810 ft 364 kts 342°
2026-05-07 17:59 36.55003 -121.45366 17210 ft 362 kts 342°
2026-05-07 18:00 36.57388 -121.46318 16636 ft 358 kts 342°
2026-05-07 18:00 36.59752 -121.47275 16079 ft 356 kts 342°
2026-05-07 18:00 36.62097 -121.48241 15408 ft 356 kts 342°
2026-05-07 18:00 36.64446 -121.49224 14807 ft 355 kts 342°
2026-05-07 18:01 36.66786 -121.50211 14225 ft 354 kts 341°
2026-05-07 18:01 36.69119 -121.51198 13622 ft 353 kts 341°
2026-05-07 18:01 36.71438 -121.52180 13034 ft 351 kts 341°
2026-05-07 18:01 36.73746 -121.53157 12466 ft 349 kts 341°
2026-05-07 18:02 36.78340 -121.55106 11224 ft 347 kts 340°
2026-05-07 18:02 36.80627 -121.56079 10664 ft 346 kts 340°
2026-05-07 18:02 36.82846 -121.57022 10419 ft 334 kts 340°
2026-05-07 18:03 36.85036 -121.57953 10227 ft 322 kts 340°
2026-05-07 18:03 36.87085 -121.58825 10074 ft 309 kts 340°
2026-05-07 18:03 36.89086 -121.59677 9934 ft 297 kts 340°
2026-05-07 18:03 36.91015 -121.60499 9496 ft 296 kts 340°
2026-05-07 18:04 36.92956 -121.61327 9098 ft 294 kts 340°
2026-05-07 18:04 36.94895 -121.62150 8684 ft 293 kts 340°
2026-05-07 18:04 36.96816 -121.62966 8308 ft 291 kts 340°
2026-05-07 18:04 36.98724 -121.63774 7939 ft 289 kts 340°
2026-05-07 18:05 37.00619 -121.64578 7568 ft 286 kts 340°
2026-05-07 18:05 37.01864 -121.65107 7336 ft 284 kts 340°
2026-05-07 18:05 37.03728 -121.65900 6972 ft 282 kts 340°
2026-05-07 18:05 37.05578 -121.66686 6613 ft 281 kts 340°
2026-05-07 18:06 37.07424 -121.67472 6225 ft 279 kts 340°
2026-05-07 18:06 37.09252 -121.68251 5860 ft 276 kts 340°
2026-05-07 18:06 37.11068 -121.69023 5478 ft 274 kts 340°
2026-05-07 18:06 37.12867 -121.69790 5124 ft 272 kts 340°
2026-05-07 18:07 37.14658 -121.70552 4860 ft 268 kts 340°
2026-05-07 18:07 37.16373 -121.71353 4700 ft 258 kts 330°
2026-05-07 18:07 37.17774 -121.72702 4448 ft 253 kts 318°
2026-05-07 18:07 37.19086 -121.74162 4156 ft 251 kts 318°
2026-05-07 18:08 37.20387 -121.75599 3852 ft 249 kts 319°
2026-05-07 18:08 37.21697 -121.77025 3564 ft 249 kts 319°
2026-05-07 18:08 37.22996 -121.78439 3295 ft 244 kts 319°
2026-05-07 18:08 37.24256 -121.79816 2990 ft 236 kts 319°
2026-05-07 18:09 37.25473 -121.81138 2773 ft 226 kts 320°
2026-05-07 18:09 37.26645 -121.82390 2446 ft 216 kts 319°
2026-05-07 18:09 37.27757 -121.83614 2163 ft 209 kts 319°
2026-05-07 18:09 37.28829 -121.84794 1871 ft 202 kts 319°
2026-05-07 18:10 37.29859 -121.85929 1599 ft 194 kts 320°
2026-05-07 18:10 37.30845 -121.87016 1344 ft 183 kts 320°
2026-05-07 18:10 37.31767 -121.88029 1112 ft 169 kts 320°
2026-05-07 18:10 37.32593 -121.88956 886 ft 151 kts 320°
2026-05-07 18:11 37.33349 -121.89770 681 ft 136 kts 320°
2026-05-07 18:11 37.34037 -121.90534 477 ft 130 kts 320°
2026-05-07 18:11 37.34723 -121.91279 314 ft 135 kts 318°
2026-05-07 18:11 37.35440 -121.92083 164 ft 139 kts 319°
2026-05-07 18:12 37.36143 -121.92861 63 ft 126 kts 319°
2026-05-07 18:12 37.36698 -121.93463 57 ft 60 kts 320°
2026-05-07 18:12 37.36854 -121.93587 59 ft 18 kts
2026-05-07 18:12 37.36958 -121.93523 64 ft 17 kts 47°
2026-05-07 18:13 37.37030 -121.93416 60 ft 13 kts 47°
2026-05-07 18:13 37.37010 -121.93319 61 ft 13 kts 138°
2026-05-07 18:13 37.36942 -121.93248 55 ft 13 kts 139°
2026-05-07 18:13 37.36879 -121.93175 57 ft 12 kts 135°
2026-05-07 18:14 37.36816 -121.93105 54 ft 12 kts 142°
2026-05-07 18:14 37.36741 -121.93030 61 ft 15 kts 140°
2026-05-07 18:14 37.36650 -121.92933 57 ft 19 kts 139°
2026-05-07 18:14 37.36547 -121.92810 58 ft 22 kts 137°
2026-05-07 18:15 37.36484 -121.92716 54 ft 11 kts 96°
2026-05-07 18:15 37.36485 -121.92642 60 ft 9 kts 135°
2026-05-07 18:15 37.36440 -121.92593 61 ft 9 kts 139°
2026-05-07 18:15 37.36442 -121.92530 57 ft 7 kts 51°
2026-05-07 18:16 37.36458 -121.92506 55 ft 2 kts 48°
2026-05-07 18:16 37.36463 -121.92499 58 ft 0 kts 48°